Flag for Bosnia-Herzegovina Weather past 2 weeks in Mostar, Bosnia-Herzegovina

Now
48 °F

Partly cloudy.


Feels Like: 48 °F
Forecast: 36 / 57 °F
Wind: 1 mph from North

Location: Mostar

Current Time: Dec 18, 2014 at 7:01:06 AM

Latest Report: Dec 18, 2014 at 6:30 AM


Visibility: 4 mi

Pressure: 29.98 "Hg

Humidity: 94%

Dew point: 46 °F

Location of MostarLocation

Historic Weather in Mostar — Graph

°F

Mostar temperature yesterday

Maximum temperature yesterday: 55 °F (at 10:00 AM)
Minimum temperature yesterday: 48 °F (at 3:00 AM)
Average temperature yesterday: 52 °F

Past Weeks' High & Low Weather Summary

 TemperatureHumidityPressure
High63 °F (Dec 3, 10:30 AM)100% (Dec 3, 10:00 PM)30.30 "Hg (Dec 3, 10:00 PM)
Low28 °F (Dec 13, 5:00 AM)31% (Dec 12, 2:00 PM)29.74 "Hg (Dec 9, 6:00 AM)
Average48 °F79%29.98 "Hg
* Reported Dec 3 6:00 AM — Dec 18 6:00 AM, Mostar, Weather by CustomWeather, © 2014

Note: Actual official high and low records may vary slightly from our data, if they occured in-between our weather recording intervals... More about our weather records

Advertising

Mostar weather history for previous 24 hours

 ConditionsComfort  
Time TempWeatherWind HumidityBarometerVisibility
6:00 AM
Dec 18
46 °FFog.3 mph100%29.98 "Hg2 mi
5:00 AM48 °FFog.3 mph94%29.95 "Hg0 mi
4:00 AM48 °FFog.3 mph94%29.95 "Hg1 mi
3:00 AM48 °FFog.2 mph94%29.92 "Hg1 mi
2:00 AM48 °FFog.1 mph100%29.92 "Hg1 mi
1:00 AM48 °FPartly cloudy.2 mph100%29.92 "Hg4 mi
12:00 AM50 °FPartly cloudy.3 mph94%29.92 "Hg5 mi
11:00 PM
Dec 17
50 °FLight rain. Partly cloudy.3 mph94%29.92 "Hg4 mi
10:00 PM50 °FLight rain. Partly cloudy.3 mph100%29.92 "Hg4 mi
9:00 PM50 °FThunderstorms. Passing clouds.5 mph100%29.92 "Hg4 mi
8:00 PM50 °FLight rain. Passing clouds.5 mph94%29.89 "Hg6 mi
6:35 PM50 °FLight rain. Overcast.5 mph100%29.89 "Hg6 mi
6:00 PM52 °FRain. Overcast.1 mph94%29.89 "Hg5 mi
5:00 PM52 °FLight rain. Fog.3 mph94%29.89 "Hg2 mi
4:00 PM54 °FLight rain. Fog.5 mph88%29.86 "Hg3 mi
3:00 PM54 °FBroken clouds.6 mph94%29.86 "Hg3 mi
2:00 PM55 °FScattered clouds.5 mph88%29.86 "HgN/A
1:00 PM54 °FBroken clouds.5 mph94%29.86 "HgN/A
12:00 PM54 °FRain. Broken clouds.5 mph88%29.89 "Hg6 mi
11:30 AM55 °FLight rain. Broken clouds.6 mph77%29.89 "HgN/A
11:00 AM55 °FBroken clouds.1 mph77%29.89 "HgN/A
10:30 AM55 °FScattered clouds.6 mph77%29.89 "HgN/A
10:00 AM55 °FScattered clouds.3 mph77%29.89 "HgN/A
9:30 AM54 °FScattered clouds.6 mph77%29.89 "HgN/A
9:00 AM50 °FThunderstorms. Scattered clouds.5 mph94%29.89 "HgN/A
8:30 AM52 °FScattered clouds.3 mph88%29.86 "HgN/A
8:00 AM52 °FPartly sunny.3 mph88%29.86 "HgN/A
7:30 AM52 °FPartly sunny.5 mph82%29.86 "HgN/A
7:00 AM54 °FPassing clouds.7 mph82%29.83 "HgN/A
Weather by CustomWeather, © 2014

See weather overviewHow to use our weather pages